AirNav   Everest Fuels
 
 1430 users online  

FA27 Perrydise Heliport
Homosassa, Florida, USA

GOING TO HOMOSASSA?


FAA INFORMATION EFFECTIVE 16 JULY 2020

Location

FAA Identifier: FA27
Lat/Long: 28-45-36.7100N 082-37-43.6400W
28-45.611833N 082-37.727333W
28.7601972,-82.6287889
(estimated)
Elevation: 4 ft. / 1 m (estimated)
From city: 2 miles SW of HOMOSASSA, FL
Time zone: UTC -4 (UTC -5 during Standard Time)
Zip code: 34448

Heliport Operations

Heliport use: Private use. Permission required prior to landing
Activation date: 05/2016
Control tower: no
ARTCC: JACKSONVILLE CENTER
FSS: SAINT PETERSBURG FLIGHT SERVICE STATION
Attendance: 
Segmented circle: no

Heliport Communications

WX AWOS-3 at CGC (7 nm NE): 118.325 (352-563-6600)
WX AWOS-3 at INF (17 nm E): 119.975 (352-560-6012)
WX ASOS at BKV (19 nm SE): 134.725 (352-799-5881)

Nearby radio navigation aids

VOR radial/distance  VOR name  Freq  Var
OCFr220/32.8OCALA VORTAC113.7000E

Heliport Services

Runway Information

Helipad H1

Dimensions: 33 x 33 ft. / 10 x 10 m
Surface: turf
Traffic pattern: leftleft

Heliport Ownership and Management from official FAA records

Ownership: Privately-owned
Owner: PERRYDISE WILDLIFE, LLC
509 GUISANDO DE AVILA, SUITE 200
TAMPA, FL 33613
Phone 813-785-5138
Manager: JOHN (HI) SIERRA, JR
509 GUISANDO DE AVILA, SUITE 200
TAMPA, FL 33613
Phone 813-785-5138

Additional Remarks

FOR CD CTC JACKSONVILLE APCH AT 904-741-0284.

Instrument Procedures

There are no published instrument procedures at FA27.

Some nearby airports with instrument procedures:

KCGC - Crystal River Airport-Captain Tom Davis Field (7 nm NE)
KINF - Inverness Airport (17 nm E)
KBKV - Brooksville-Tampa Bay Regional Airport (19 nm SE)
X35 - Marion County Airport (22 nm NE)
KOCF - Ocala International Airport-Jim Taylor Field (33 nm NE)
 
Loc | Ops | Rwys | IFR | FBO | Links
Com | Nav | Svcs | Stats | Notes
Aerial photo
No photo
 
Airport distance calculator
Flying to Perrydise Heliport? Find the distance to fly.

From to FA27

Sunrise and sunset
Times for 07-Aug-2020
 Local
(UTC-4)
 Zulu
(UTC)
Morning civil twilight06:3110:31
Sunrise06:5710:57
Sunset20:1600:16
Evening civil twilight20:4100:41

Current date and time
Zulu (UTC)  07-Aug-2020 15:13:18
Local (UTC-4)  07-Aug-2020 11:13:18
 
METAR
KCGC 
7nm NE 
071455Z AUTO 00000KT 10SM BKN027 BKN033 BKN055 32/24 A3009 RMK AO2 LTG DSNT NW
KINF 
17nm E 
071455Z AUTO 00000KT 7SM SCT019 SCT024 30/27 A3010 RMK AO2 LTG DSNT W
KBKV 
20nm SE 
071453Z VRB03KT 10SM FEW026 31/25 A3010 RMK AO2 SLP191 T03060250 51006
TAF
KLEE 
43nm E 
071143Z 0712/0812 VRB03KT P6SM FEW025 SCT180 FM071400 VRB04KT P6SM SCT035 SCT250 FM071900 24007KT P6SM VCTS SCT045CB SCT060 TEMPO 0721/0723 3SM TSRA BKN035CB FM080100 18004KT P6SM SCT050 BKN250
KTPA 
48nm S 
071125Z 0712/0818 VRB03KT P6SM FEW025 SCT250 FM071500 25006KT P6SM VCTS SCT030CB BKN250 FM072100 28007KT P6SM SCT035 SCT130 BKN250 FM080100 VRB03KT P6SM FEW030 SCT250 FM081600 28006KT P6SM SCT030 SCT250
NOTAMs
Click for the latest NOTAMs
NOTAMs are issued by the DoD/FAA and will open in a separate window not controlled by AirNav.

 

 
 

Would you like to see your business listed on this page?

 If your business provides an interesting product or service to pilots, flight crews, aircraft, or users of the Perrydise Heliport, you should consider listing it here.  To start the listing process, click on the button below
 
Add a business
 

Other Pages about Perrydise Heliport

Update a link
 
Copyright © AirNav, LLC. All rights reserved. Privacy Policy  Contact